Weather History for Elefsis, Greece

Change the Weather History Date:

Tuesday, October 30, 2012

  Actual Average Record
Temperature  
Mean Temperature 65 °F -  
Max Temperature 73 °F 63 °F 77 °F (2004)
Min Temperature 57 °F 49 °F 46 °F (2010)
Growing Degree Days 15 (Base 50)    
Moisture  
Dew Point 44 °F    
Average Humidity 48    
Maximum Humidity 72    
Minimum Humidity 31    
Precipitation  
Precipitation 0.00 in - - ()
Sea Level Pressure  
Sea Level Pressure 29.82 in    
Wind  
Wind Speed 7 mph ()    
Max Wind Speed 77 mph    
Max Gust Speed 28 mph    
Visibility 6.2 miles    
Events      
Averages and records for this station are not official NWS values.
T = Trace of Precipitation, MM = Missing Value Source: Averaged Metar Reports

Daily Weather History Graph

Daily Weather History Graph

Search for Another Location

Airport:

Trip Planner

Search our weather history database for the weather conditions in past years. The results will help you decide how hot, cold, wet, or windy it might be!

Date:

Astronomy

Oct. 30, 2012 Rise Set
Actual Time 6:49 AM EET 5:28 PM EET
Civil Twilight 6:22 AM EET 5:55 PM EET
Nautical Twilight 5:51 AM EET 6:26 PM EET
Astronomical Twilight 5:20 AM EET 6:57 PM EET
Moon 5:47 PM EET (10/30) 7:17 AM EET (10/30)
Length of Visible Light 11h 33m
Length of Day
10h 38m
Full, 100% of the Moon is Illuminated
Oct 30
Full
Nov 7
Last Quarter
Nov 14
New
Nov 20
First Quarter
Nov 28
Full

Hourly Weather History & Observations

Time (EET) Temp. Dew Point Humidity Pressure Visibility Wind Dir Wind Speed Gust Speed Precip Events Conditions
12:50 AM 64.4 °F 42.8 °F 45% 29.74 in 6.2 mi NW 4.6 mph - N/A   Partly Cloudy
1:50 AM 64.4 °F 42.8 °F 45% 29.74 in 6.2 mi Calm Calm - N/A   Partly Cloudy
2:50 AM 60.8 °F 46.4 °F 59% 29.74 in 6.2 mi West 6.9 mph - N/A   Partly Cloudy
3:50 AM 62.6 °F 48.2 °F 59% 29.74 in 6.2 mi West 8.1 mph - N/A   Scattered Clouds
4:50 AM 60.8 °F 50.0 °F 68% 29.74 in 6.2 mi WSW 4.6 mph - N/A   Partly Cloudy
5:20 AM 60.8 °F 50.0 °F 68% 29.74 in 6.2 mi WNW 4.6 mph - N/A   Partly Cloudy
5:50 AM 59.0 °F 50.0 °F 72% 29.74 in 6.2 mi Calm Calm - N/A   Partly Cloudy
6:20 AM 59.0 °F 50.0 °F 72% 29.74 in 6.2 mi Calm Calm - N/A   Scattered Clouds
6:50 AM 59.0 °F 50.0 °F 72% 29.77 in 6.2 mi Calm Calm - N/A   Partly Cloudy
7:20 AM 60.8 °F 50.0 °F 68% 29.77 in 6.2 mi Calm Calm - N/A   Partly Cloudy
7:50 AM 64.4 °F 46.4 °F 52% 29.77 in - WNW 8.1 mph - N/A   Clear
8:20 AM 66.2 °F 42.8 °F 43% 29.77 in - West 15.0 mph - N/A   Clear
8:50 AM 68.0 °F 42.8 °F 40% 29.80 in 6.2 mi WNW 10.4 mph - N/A   Partly Cloudy
9:20 AM 68.0 °F 42.8 °F 40% 29.80 in 6.2 mi WNW 12.7 mph - N/A   Partly Cloudy
9:50 AM 69.8 °F 42.8 °F 38% 29.80 in 6.2 mi West 13.8 mph - N/A   Partly Cloudy
10:20 AM 69.8 °F 42.8 °F 38% 29.80 in 6.2 mi WNW 11.5 mph - N/A   Partly Cloudy
10:50 AM 69.8 °F 41.0 °F 35% 29.80 in - West 13.8 mph 25.3 mph N/A   Clear
11:20 AM 69.8 °F 42.8 °F 38% 29.80 in - West 16.1 mph 27.6 mph N/A   Clear
11:50 AM 71.6 °F 39.2 °F 31% 29.80 in - West 16.1 mph - N/A   Clear
12:20 PM 71.6 °F 41.0 °F 33% 29.80 in - West 9.2 mph - N/A   Clear
12:50 PM 71.6 °F 41.0 °F 33% 29.83 in - West 6.9 mph - N/A   Clear
1:20 PM 71.6 °F 41.0 °F 33% 29.83 in - West 9.2 mph - N/A   Clear
1:50 PM 73.4 °F 41.0 °F 31% 29.83 in - West 6.9 mph - N/A   Clear
2:20 PM 73.4 °F 41.0 °F 31% 29.83 in - West 77.1 mph - N/A   Clear
2:50 PM 71.6 °F 41.0 °F 33% 29.83 in - WNW 8.1 mph - N/A   Clear
3:20 PM 73.4 °F 41.0 °F 31% 29.83 in - West 6.9 mph - N/A   Clear
3:50 PM 69.8 °F 42.8 °F 38% 29.83 in - WNW 8.1 mph - N/A   Clear
4:20 PM 69.8 °F 42.8 °F 38% 29.83 in - WNW 8.1 mph - N/A   Clear
4:50 PM 66.2 °F 44.6 °F 46% 29.83 in - North 9.2 mph - N/A   Clear
5:20 PM 66.2 °F 44.6 °F 46% 29.83 in - North 9.2 mph - N/A   Clear
5:50 PM 64.4 °F 44.6 °F 49% 29.83 in - Calm Calm - N/A   Clear
6:20 PM 64.4 °F 44.6 °F 49% 29.83 in - Calm Calm - N/A   Clear
6:50 PM 64.4 °F 42.8 °F 45% 29.86 in - Calm Calm - N/A   Clear
7:20 PM 60.8 °F 44.6 °F 55% 29.86 in - Calm Calm - N/A   Clear
7:50 PM 62.6 °F 42.8 °F 48% 29.89 in - NNW 6.9 mph - N/A   Clear
8:20 PM 62.6 °F 44.6 °F 52% 29.89 in - NNW 6.9 mph - N/A   Clear
8:50 PM 62.6 °F 44.6 °F 52% 29.89 in - North 5.8 mph - N/A   Clear
9:20 PM 60.8 °F 44.6 °F 55% 29.92 in - North 5.8 mph - N/A   Clear
9:50 PM 60.8 °F 44.6 °F 55% 29.92 in - North 5.8 mph - N/A   Clear
10:20 PM 59.0 °F 44.6 °F 59% 29.92 in - NNW 5.8 mph - N/A   Clear
10:50 PM 57.2 °F 44.6 °F 63% 29.92 in - NW 4.6 mph - N/A   Clear
11:50 PM 59.0 °F 44.6 °F 59% 29.92 in - NNW 8.1 mph - N/A   Clear